Weather History for Faribault, MN

Change the Weather History Date:

Friday, February 21, 2014

  Actual Average Record
Temperature  
Mean Temperature 16 °F -  
Max Temperature 21 °F 33 °F 53 °F (1981)
Min Temperature 10 °F 13 °F -20 °F (1966)
Degree Days  
Heating Degree Days 50    
Moisture  
Dew Point 6 °F    
Average Humidity 65    
Maximum Humidity 73    
Minimum Humidity 58    
Precipitation  
Precipitation 0.00 in - - ()
Sea Level Pressure  
Sea Level Pressure 29.58 in    
Wind  
Wind Speed 18 mph (West)    
Max Wind Speed 28 mph    
Max Gust Speed 34 mph    
Visibility 5 miles    
Events Snow    
Averages and records for this station are not official NWS values.
T = Trace of Precipitation, MM = Missing Value Source: NWS Daily Summary

Daily Weather History Graph

Daily Weather History Graph

Search for Another Location

Airport:

Trip Planner

Search our weather history database for the weather conditions in past years. The results will help you decide how hot, cold, wet, or windy it might be!

Date:

Astronomy

Feb. 21, 2014 Rise Set
Actual Time 7:03 AM CST 5:50 PM CST
Civil Twilight 6:34 AM CST 6:20 PM CST
Nautical Twilight 6:00 AM CST 6:53 PM CST
Astronomical Twilight 5:26 AM CST 7:27 PM CST
Moon No Moon Rise 10:13 AM CST (2/21)
Length of Visible Light 11h 45m
Length of Day
10h 47m
Waning Gibbous, 60% of the Moon is Illuminated
Feb 21
Waning Gibbous
Feb 22
Last Quarter
Mar 1
New
Mar 8
First Quarter
Mar 16
Full

Hourly Weather History & Observations

Time (CST) Temp. Windchill Dew Point Humidity Pressure Visibility Wind Dir Wind Speed Gust Speed Precip Events Conditions
12:14 AM 17.6 °F 2.2 °F 10.4 °F 73% 29.34 in 1.2 mi West 17.3 mph 28.8 mph N/A Snow Light Snow
12:34 AM 17.6 °F 1.3 °F 8.6 °F 68% 29.34 in 1.5 mi West 19.6 mph 32.2 mph N/A Snow Light Snow
12:54 AM 17.6 °F 0.5 °F 8.6 °F 68% 29.35 in 1.8 mi West 21.9 mph 26.5 mph N/A Snow Light Snow
1:13 AM 15.8 °F -2.3 °F 8.6 °F 73% 29.35 in 1.2 mi West 23.0 mph 27.6 mph N/A Snow Light Snow
1:34 AM 15.8 °F -1.1 °F 8.6 °F 73% 29.35 in 1.5 mi West 19.6 mph 26.5 mph N/A Snow Light Snow
1:54 AM 15.8 °F -1.5 °F 8.6 °F 73% 29.36 in 1.2 mi West 20.7 mph 32.2 mph N/A Snow Light Snow
2:14 AM 15.8 °F -1.1 °F 8.6 °F 73% 29.37 in 1.5 mi West 19.6 mph 26.5 mph N/A Snow Light Snow
2:34 AM 15.8 °F -1.1 °F 6.8 °F 68% 29.37 in 1.5 mi West 19.6 mph 27.6 mph N/A Snow Light Snow
2:54 AM 14.0 °F -4.7 °F 6.8 °F 73% 29.38 in 1.2 mi West 23.0 mph 31.1 mph N/A Snow Light Snow
3:14 AM 14.0 °F -4.3 °F 6.8 °F 73% 29.39 in 1.0 mi West 21.9 mph 33.4 mph N/A Snow Light Snow
3:34 AM 14.0 °F -3.4 °F 6.8 °F 73% 29.39 in 1.2 mi West 19.6 mph 31.1 mph N/A Snow Light Snow
3:54 AM 12.2 °F -8.6 °F 5.0 °F 73% 29.40 in 1.2 mi West 27.6 mph 32.2 mph N/A Snow Light Snow
4:14 AM 12.2 °F -7.1 °F 3.2 °F 67% 29.40 in 2.0 mi West 23.0 mph 29.9 mph N/A Snow Light Snow
4:34 AM 12.2 °F -6.7 °F 3.2 °F 67% 29.41 in 2.0 mi West 21.9 mph 29.9 mph N/A Snow Light Snow
4:53 AM 12.2 °F -6.7 °F 3.2 °F 67% 29.43 in 2.0 mi West 21.9 mph 31.1 mph N/A Snow Light Snow
5:14 AM 10.4 °F -9.1 °F 3.2 °F 73% 29.44 in 3.0 mi West 21.9 mph 27.6 mph N/A   Haze
5:34 AM 10.4 °F -9.5 °F 1.4 °F 67% 29.45 in 2.5 mi West 23.0 mph 34.5 mph N/A   Haze
5:53 AM 10.4 °F -7.7 °F 1.4 °F 67% 29.46 in 4.0 mi West 18.4 mph 26.5 mph N/A   Haze
6:14 AM 10.4 °F -7.2 °F 1.4 °F 67% 29.47 in 5.0 mi West 17.3 mph 25.3 mph N/A   Haze
6:34 AM 10.4 °F -5.4 °F 1.4 °F 67% 29.47 in 5.0 mi West 13.8 mph 26.5 mph N/A   Haze
6:54 AM 10.4 °F -5.4 °F 1.4 °F 67% 29.48 in 5.0 mi West 13.8 mph 25.3 mph N/A   Haze
7:14 AM 10.4 °F -6.6 °F 1.4 °F 67% 29.49 in 2.5 mi West 16.1 mph 25.3 mph N/A   Haze
7:34 AM 10.4 °F -8.6 °F 1.4 °F 67% 29.50 in 1.5 mi West 20.7 mph 29.9 mph N/A   Haze
7:54 AM 10.4 °F -6.6 °F 1.4 °F 67% 29.51 in 2.5 mi West 16.1 mph 20.7 mph N/A   Haze
8:14 AM 10.4 °F -7.7 °F 1.4 °F 67% 29.52 in 2.5 mi West 18.4 mph 25.3 mph N/A   Haze
8:34 AM 10.4 °F -8.2 °F 1.4 °F 67% 29.52 in 2.5 mi West 19.6 mph 25.3 mph N/A   Haze
8:54 AM 10.4 °F -8.6 °F -0.4 °F 62% 29.52 in 1.8 mi West 20.7 mph 29.9 mph N/A   Haze
9:14 AM 10.4 °F -7.2 °F 1.4 °F 67% 29.52 in 2.5 mi West 17.3 mph 24.2 mph N/A   Haze
9:34 AM 12.2 °F -6.7 °F 1.4 °F 62% 29.53 in 2.5 mi West 21.9 mph 27.6 mph N/A   Haze
9:54 AM 12.2 °F -3.7 °F 1.4 °F 62% 29.53 in 3.0 mi West 15.0 mph 24.2 mph N/A   Haze
10:14 AM 12.2 °F -6.7 °F 1.4 °F 62% 29.54 in 2.5 mi West 21.9 mph 29.9 mph N/A   Haze
10:34 AM 12.2 °F -3.7 °F 1.4 °F 62% 29.55 in 3.0 mi West 15.0 mph 23.0 mph N/A   Haze
10:54 AM 12.2 °F -5.3 °F 1.4 °F 62% 29.57 in 3.0 mi West 18.4 mph 21.9 mph N/A   Haze
11:14 AM 14.0 °F -3.0 °F 3.2 °F 62% 29.57 in 4.0 mi West 18.4 mph 28.8 mph N/A   Haze
11:34 AM 14.0 °F -3.4 °F 3.2 °F 62% 29.58 in 3.0 mi West 19.6 mph 27.6 mph N/A   Haze
11:54 AM 15.8 °F -0.6 °F 3.2 °F 58% 29.58 in 3.0 mi West 18.4 mph 24.2 mph N/A   Haze
12:14 PM 15.8 °F 0.9 °F 3.2 °F 58% 29.58 in 3.0 mi West 15.0 mph 31.1 mph N/A   Haze
12:34 PM 15.8 °F -0.2 °F 5.0 °F 62% 29.58 in 4.0 mi West 17.3 mph 26.5 mph N/A   Haze
12:54 PM 17.6 °F 1.3 °F 6.8 °F 63% 29.59 in 5.0 mi WSW 19.6 mph 24.2 mph N/A   Haze
1:14 PM 17.6 °F 1.7 °F 6.8 °F 63% 29.60 in 3.0 mi West 18.4 mph 27.6 mph N/A   Haze
1:34 PM 19.4 °F 3.6 °F 6.8 °F 58% 29.60 in 4.0 mi West 19.6 mph 26.5 mph N/A   Haze
1:54 PM 19.4 °F 4.5 °F 6.8 °F 58% 29.60 in 4.0 mi West 17.3 mph 27.6 mph N/A   Haze
2:14 PM 19.4 °F 2.1 °F 6.8 °F 58% 29.61 in 4.0 mi West 24.2 mph 31.1 mph N/A   Haze
2:34 PM 19.4 °F 4.5 °F 8.6 °F 63% 29.62 in 5.0 mi West 17.3 mph 27.6 mph N/A   Haze
2:54 PM 19.4 °F 3.2 °F 8.6 °F 63% 29.63 in 7.0 mi West 20.7 mph 28.8 mph N/A   Scattered Clouds
3:13 PM 19.4 °F 3.6 °F 8.6 °F 63% 29.64 in 4.0 mi West 19.6 mph 29.9 mph N/A   Haze
3:34 PM 19.4 °F 2.8 °F 8.6 °F 63% 29.65 in 4.0 mi West 21.9 mph 28.8 mph N/A   Haze
3:54 PM 21.2 °F 8.3 °F 8.6 °F 58% 29.66 in 7.0 mi West 13.8 mph 27.6 mph N/A   Scattered Clouds
4:14 PM 21.2 °F 6.4 °F 8.6 °F 58% 29.67 in 7.0 mi West 18.4 mph 26.5 mph N/A   Scattered Clouds
4:34 PM 21.2 °F 6.4 °F 8.6 °F 58% 29.67 in 7.0 mi West 18.4 mph 26.5 mph N/A   Clear
4:54 PM 21.2 °F 6.0 °F 8.6 °F 58% 29.68 in 7.0 mi WSW 19.6 mph - N/A   Clear
5:14 PM 19.4 °F 5.5 °F 8.6 °F 63% 29.69 in 10.0 mi West 15.0 mph 23.0 mph N/A   Clear
5:34 PM 19.4 °F 6.6 °F 8.6 °F 63% 29.70 in 10.0 mi West 12.7 mph 18.4 mph N/A   Clear
5:54 PM 19.4 °F 6.0 °F 10.4 °F 68% 29.71 in 10.0 mi West 13.8 mph 18.4 mph N/A   Clear
6:14 PM 19.4 °F 8.6 °F 8.6 °F 63% 29.72 in 10.0 mi WSW 9.2 mph - N/A   Clear
6:34 PM 19.4 °F 7.2 °F 8.6 °F 63% 29.73 in 10.0 mi West 11.5 mph - N/A   Clear
6:54 PM 19.4 °F 8.6 °F 8.6 °F 63% 29.73 in 10.0 mi WSW 9.2 mph - N/A   Clear
7:14 PM 17.6 °F 5.0 °F 8.6 °F 68% 29.74 in 10.0 mi WSW 11.5 mph - N/A   Clear
7:34 PM 17.6 °F 5.0 °F 8.6 °F 68% 29.75 in 10.0 mi West 11.5 mph - N/A   Clear
7:54 PM 17.6 °F 5.7 °F 8.6 °F 68% 29.75 in 10.0 mi West 10.4 mph - N/A   Clear
8:14 PM 17.6 °F 6.4 °F 8.6 °F 68% 29.75 in 10.0 mi West 9.2 mph - N/A   Clear
8:34 PM 17.6 °F 7.3 °F 8.6 °F 68% 29.76 in 10.0 mi West 8.1 mph - N/A   Clear
8:54 PM 17.6 °F 6.4 °F 8.6 °F 68% 29.76 in 10.0 mi West 9.2 mph - N/A   Clear
9:14 PM 17.6 °F 7.3 °F 6.8 °F 63% 29.77 in 10.0 mi West 8.1 mph - N/A   Clear
9:34 PM 17.6 °F 5.7 °F 6.8 °F 63% 29.77 in 10.0 mi West 10.4 mph - N/A   Clear
9:54 PM 15.8 °F 3.4 °F 6.8 °F 68% 29.77 in 10.0 mi West 10.4 mph - N/A   Clear
10:14 PM 15.8 °F 4.2 °F 6.8 °F 68% 29.78 in 10.0 mi West 9.2 mph - N/A   Clear
10:34 PM 15.8 °F 5.1 °F 6.8 °F 68% 29.78 in 10.0 mi WSW 8.1 mph - N/A   Clear
10:54 PM 15.8 °F 4.2 °F 5.0 °F 62% 29.78 in 10.0 mi West 9.2 mph - N/A   Clear
11:14 PM 15.8 °F 5.1 °F 5.0 °F 62% 29.78 in 10.0 mi West 8.1 mph - N/A   Clear
11:34 PM 15.8 °F 5.1 °F 3.2 °F 58% 29.78 in 10.0 mi West 8.1 mph - N/A   Clear
11:54 PM 15.8 °F 4.2 °F 3.2 °F 58% 29.79 in 10.0 mi West 9.2 mph - N/A   Clear